GPS BIII-8 (PRN 21)

Last updated on Sat Nov 15 2025 00:03:18 GMT+0000 (Coordinated Universal Time)

1 64202U 25116A 25318.68876968 -.00000100 00000+0 00000+0 0 9996 2 64202 55.0858 39.7738 0004570 301.6372 54.7068 2.00560100 3560
UTC large
Height (km)
Speed (km/s)
/
Latitude / Longitude
Inclination (degrees)
Orbital Period (minutes)
Azimuth
Elevation
Range (km)
Doppler Factor

Next 0 passes for location: London (51.5072 / 0.1276)

Sorry there are no passes over London.